Content
SEND FEEDBACK

Daily
Averages
Monthly
Summary
Mexico

COZUMEL, QUINTANA ROO


Home > North America > Mexico > Quintana Roo
Elevation: 15 feet     Latitude: 20 31N     Longitude: 086 56W

WEATHER
 
SELECT A DAY
Number of Records: 127,219;   Date Range: 1/1/95 - 10/20/14
 
SHARE

PRINT THIS DATA

[ ← Previous Day ]
WEATHER ALMANAC - JUNE 17, 2014
[ Next Day → ]
[ °C ]   °F
Weather ElementAverageHighLow
Temperature78.1 °F84.2 °F (2:41 pm)71.6 °F (4:19 am)
Dewpoint75 °F77 °F (7:45 am)71.6 °F (4:19 am)
Humidity90.5 %100 % (2:47 am)79 % (9:40 am)
Barometer30.01 in30.05 in (9:40 am)29.98 in (6:45 am)
Wind Speed8.2 mph17.3 mph (12:47 pm)
Weather ElementAverage
Visibility7.4 mi
Wind DirectionENE (77.3 °)

Weather ElementTotal
Precipitation---
Cooling Degree Days12.9 (Base 65)
Growing Degree Days27.9 (Base 50)
Averaged from 22 records on June 17, 2014
WEATHER CONDITIONS BREAKOUT
WIND DIRECTION BREAKOUT
WEATHER BY HOUR - JUNE 17, 2014
[ °C ]   °F
Local TimeTemperatureDewpointHumidityBarometerVisibilityWind DirectionWind SpeedGust SpeedPrecipitationEventsConditions
2:47 AM73.4 °F73.4 °F100 %29.99 in7.0 miEast (90°)3.5 mphPartly Cloudy
4:19 AM71.6 °F71.6 °F100 %30.02 in7.0 miCalmPartly Cloudy
4:54 AM73.4 °F73.4 °F100 %30.00 in7.0 miEast (90°)3.5 mphPartly Cloudy
5:40 AM71.6 °F71.6 °F100 %30.00 in7.0 miEast (100°)3.5 mphPartly Cloudy
6:45 AM73.4 °F73.4 °F100 %29.98 in7.0 miEast (100°)4.6 mphPartly Cloudy
7:45 AM77.0 °F77.0 °F100 %30.02 in7.0 miEast (80°)4.6 mphPartly Cloudy
8:47 AM80.6 °F75.2 °F84 %30.03 in7.0 miEast (90°)6.9 mphScattered Clouds
9:40 AM82.4 °F75.2 °F79 %30.05 in7.0 miENE (70°)9.2 mphScattered Clouds
10:41 AM82.4 °F77.0 °F84 %30.03 in7.0 miENE (60°)9.2 mphScattered Clouds
11:45 AM82.4 °F75.2 °F79 %30.04 in8.0 miENE (60°)13.8 mphScattered Clouds
12:47 PM82.4 °F77.0 °F84 %30.01 in8.0 miNE (50°)17.3 mphMostly Cloudy
1:46 PM82.4 °F77.0 °F84 %30.02 in8.0 miENE (70°)13.8 mphScattered Clouds
2:41 PM84.2 °F77.0 °F79 %30.01 in8.0 miNE (50°)17.3 mphScattered Clouds
3:48 PM82.4 °F77.0 °F84 %30.02 in8.0 miENE (60°)13.8 mphScattered Clouds
5:03 PM82.4 °F77.0 °F84 %30.00 in8.0 miENE (60°)13.8 mphScattered Clouds
5:41 PM80.6 °F75.2 °F84 %29.99 in8.0 miEast (80°)11.5 mphScattered Clouds
6:52 PM80.6 °F75.2 °F84 %29.98 in8.0 miEast (100°)8.1 mphScattered Clouds
7:43 PM77.0 °F75.2 °F94 %30.01 in8.0 miEast (100°)5.8 mphScattered Clouds
8:42 PM77.0 °F75.2 °F94 %30.01 in7.0 miEast (100°)5.8 mphScattered Clouds
9:41 PM75.2 °F73.4 °F94 %30.05 in7.0 miESE (110°)4.6 mphClear
10:40 PM73.4 °F73.4 °F100 %30.02 in7.0 miEast (80°)4.6 mphClear
11:40 PM73.4 °F73.4 °F100 %30.02 in7.0 miEast (100°)4.6 mphScattered Clouds
Hourly data recorded from MMCZ, located miles away from Cozumel, Quintana Roo







STORIES FROM OUR PARTNERS